Home   Weather   Wichita   Past weeks
Flag for USA

Past Weather in Wichita, Kansas, USA — Yesterday and Last 2 Weeks

Now
75 °F

Passing clouds.


Feels Like: 78 °F
Forecast: 82 / 53 °F
Wind: 5 mph from South

Location: Wichita Eisenhower National Airport

Current Time: Apr 7, 2020 at 8:51:31 pm

Latest Report: Apr 7, 2020 at 7:53 pm


Visibility: 10 mi

Pressure: 29.72 "Hg

Humidity: 52%

Dew Point: 56 °F

Location of WichitaLocation

Past Weather in Wichita — Graph

°F

Wichita Temperature Yesterday

Maximum temperature yesterday: 74 °F (at 5:53 pm)
Minimum temperature yesterday: 56 °F (at 12:53 am)
Average temperature yesterday: 63 °F

High & Low Weather Summary for the Past Weeks

 TemperatureHumidityPressure
High82 °F (Apr 7, 4:53 pm)96% (Mar 25, 8:53 am)30.25 "Hg (Mar 25, 8:53 am)
Low27 °F (Apr 3, 4:53 am)21% (Mar 29, 4:53 pm)29.48 "Hg (Mar 28, 5:53 am)
Average54 °F72%29.88 "Hg
* Reported Mar 23 6:53 pm — Apr 7 6:53 pm, Wichita. Weather by CustomWeather, © 2020

Note: Actual official high and low records may vary slightly from our data, if they occured in-between our weather recording intervals... More about our weather records

Wichita Weather History for the Previous 24 Hours

Scroll right to see more
 ConditionsComfort  
Time TempWeatherWind HumidityBarometerVisibility
6:53 pm
Tue, Apr 7
79 °FPassing clouds.3 mph50%29.71 "Hg10 mi
5:53 pm81 °FSunny.3 mph47%29.70 "Hg10 mi
4:53 pm82 °FPassing clouds.N/A46%29.71 "Hg10 mi
3:53 pm80 °FPassing clouds.7 mph51%29.72 "Hg10 mi
2:53 pm79 °FPassing clouds.7 mph50%29.73 "Hg10 mi
1:53 pm77 °FPassing clouds.9 mph58%29.75 "Hg10 mi
12:53 pm73 °FScattered clouds.12 mph64%29.76 "Hg10 mi
11:53 am71 °FScattered clouds.14 mph68%29.78 "Hg10 mi
10:53 am69 °FBroken clouds.15 mph73%29.78 "Hg7 mi
9:53 am65 °FMostly cloudy.13 mph85%29.78 "Hg5 mi
8:53 am63 °FFog.12 mph90%29.77 "Hg3 mi
8:17 am63 °FFog.16 mph90%29.79 "Hg3 mi
7:53 am62 °FFog.15 mph90%29.76 "Hg2 mi
7:03 am62 °FFog.14 mph90%29.77 "Hg5 mi
5:53 am61 °FFog.16 mph93%29.75 "Hg4 mi
4:53 am61 °FFog.17 mph90%29.75 "Hg6 mi
3:53 am62 °FLow clouds.17 mph90%29.76 "Hg7 mi
2:53 am62 °FLow clouds.13 mph90%29.79 "Hg8 mi
2:34 am63 °FLow clouds.16 mph87%29.82 "Hg8 mi
1:53 am63 °FOvercast.13 mph87%29.80 "Hg10 mi
12:53 am63 °FOvercast.13 mph84%29.81 "Hg10 mi
11:53 pm
Mon, Apr 6
63 °FPassing clouds.16 mph84%29.81 "Hg10 mi
10:53 pm64 °FPassing clouds.17 mph81%29.81 "Hg10 mi
9:53 pm65 °FPartly cloudy.17 mph78%29.81 "Hg10 mi
8:53 pm66 °FPartly cloudy.15 mph75%29.78 "Hg10 mi
Weather by CustomWeather, © 2020

See weather overview

Advertising